#timestamp,LO_Frequency,Hit,StdDev 
1664888415.7,286046999.6,N
1664888435.6,286046998.7,N
1664888455.4,286047001.1,N
1664888475.2,286047001.0,N
1664888495.1,286047000.8,N
1664888515.8,286047001.0,N
1664888535.7,286047001.0,N
1664888555.5,286047000.5,N
1664888575.3,286047002.8,N
1664888595.2,286047000.3,N
1664888615.0,286047000.7,N
1664888615.9,286047000.7,N
1664888635.8,286046998.7,N
1664888655.6,286047001.2,N
1664888675.5,286047001.0,N
1664888695.3,286047000.7,N
1664888715.1,286047000.6,N
1664888735.9,286046999.1,N
1664888755.7,286046999.1,N
1664888775.5,286046997.8,N
1664888795.4,286046996.9,N
1664888815.2,286046996.5,N
1664888835.1,286046998.9,N
1664888836.0,286046998.9,N
1664888855.8,286046998.2,N
1664888875.6,286047000.5,N
1664888895.5,286047000.4,N
1664888915.3,286047000.8,N
1664888935.1,286047002.8,N
1664888955.9,286046999.7,N
1664888975.7,286047002.7,N
1664888995.6,286047000.2,N
1664889015.4,286047002.5,N
1664889035.2,286047000.9,N
1664889055.1,286047002.3,N
1664889056.0,286047002.3,N
1664889075.8,286047000.7,N
1664889095.7,286046998.1,N
1664889115.5,286046998.5,N
1664889135.3,286046998.3,N
1664889155.2,286046998.4,N
1664889175.0,286047001.0,N
1664889175.9,286047001.0,N
1664889195.8,286047001.1,N
1664889215.6,286047000.5,N
1664889235.4,286047000.9,N
1664889255.3,286047000.9,N
1664889275.1,286047000.3,N
1664889295.8,286047002.7,N
1664889315.7,286046999.7,N
1664889335.5,286047001.0,N
1664889355.3,286047000.0,N
1664889375.2,286047002.3,N
1664889395.0,286047002.7,N
1664889395.9,286047002.7,N
1664889415.8,286047001.9,N
1664889435.6,286047002.0,N
1664889455.4,286047002.3,N
1664889475.3,286047002.3,N
1664889495.1,286047002.8,N
1664889515.9,286047002.3,N
1664889535.7,286047001.8,N
1664889555.5,286047001.0,N
1664889575.4,286047000.6,N
1664889595.2,286047000.2,N
1664889615.0,286047002.8,N
1664889615.9,286047002.8,N
1664889635.8,286047001.2,N
1664889655.6,286046999.9,N
1664889675.5,286047000.2,N
1664889695.3,286047000.1,N
1664889715.1,286046999.9,N
1664889735.9,286046999.8,N
1664889755.7,286046999.7,N
1664889775.6,286046999.8,N
1664889795.4,286047000.6,N
1664889815.2,286046999.9,N
1664889835.1,286047001.1,N
1664889836.0,286047001.1,N
1664889855.8,286046998.2,N
1664889875.6,286046999.9,N
1664889895.5,286047000.0,N
1664889915.3,286046998.2,N
1664889935.2,286046998.5,N
1664889955.9,286047000.7,N
1664889975.7,286046998.2,N
1664889995.6,286046999.0,N
1664890015.4,286046998.8,N
1664890035.2,286046998.2,N
1664890055.1,286046998.4,N
1664890056.0,286046998.4,N
1664890075.8,286046999.0,N
1664890095.7,286046998.1,N
1664890115.5,286046998.7,N
1664890135.3,286046998.9,N
1664890155.2,286046998.7,N
1664890175.0,286047001.1,N
1664890175.9,286047001.1,N
1664890195.8,286047000.2,N
1664890215.6,286047002.5,N
1664890235.4,286047002.4,N
1664890255.3,286047000.9,N
1664890275.1,286047000.3,N
1664890295.8,286047000.2,N
1664890315.7,286046998.5,N
1664890335.6,286047000.8,N
1664890355.4,286046998.2,N
1664890375.2,286046998.5,N
1664890395.1,286046998.6,N
1664890396.0,286046998.6,N
1664890415.8,286046998.4,N
1664890435.7,286046998.2,N
1664890455.5,286047000.0,N
1664890475.3,286047001.1,N
1664890495.2,286046998.1,N
1664890515.0,286047001.0,N
1664890515.9,286047001.0,N
1664890535.8,286047000.1,N
1664890555.6,286047002.8,N
1664890575.4,286047000.3,N
1664890595.3,286047000.2,N
1664890615.1,286047000.6,N
1664890635.8,286046999.8,N
1664890655.7,286047002.7,N
1664890675.5,286047001.6,N
1664890695.4,286047002.7,N
1664890715.2,286047000.2,N
1664890735.0,286047001.2,N
1664890735.9,286047001.2,N
1664890755.8,286047002.8,N
1664890775.6,286047000.2,N
1664890795.5,286046998.2,N
1664890815.3,286047001.0,N
1664890835.1,286046998.6,N
1664890855.9,286046999.3,N
1664890875.7,286046997.7,N
1664890895.5,286046993.3,Y
1664890915.4,286046994.1,P
1664890935.2,286046995.0,N
1664890955.1,286046996.8,N
1664890956.0,286046996.8,N
1664890975.8,286046997.4,N
1664890995.6,286046999.3,N
1664891015.5,286046998.6,N
1664891035.3,286046998.8,N
1664891055.2,286047000.7,N
1664891075.9,286047002.8,N
1664891095.7,286047002.7,N
1664891115.6,286047000.0,N
1664891135.4,286047000.2,N
1664891155.2,286047002.2,N
1664891175.1,286047002.3,N
1664891176.0,286047002.3,N
1664891195.8,286047002.8,N
1664891215.7,286047000.3,N
1664891235.5,286047000.1,N
1664891255.3,286047002.4,N
1664891275.2,286047002.6,N
1664891295.0,286047000.2,N
1664891295.9,286047000.2,N
1664891315.7,286046999.7,N
1664891335.6,286047001.5,N
1664891355.4,286047002.5,N
1664891375.3,286047001.3,N
1664891395.1,286046998.1,N
1664891396.0,286046998.1,N
1664891415.8,286047000.7,N
1664891435.7,286046999.9,N
1664891455.5,286047002.4,N
1664891475.3,286047002.4,N
1664891495.2,286047000.1,N
1664891515.0,286047000.7,N
1664891515.9,286047000.7,N
1664891535.8,286047002.4,N
1664891555.6,286046999.9,N
1664891575.4,286047001.7,N
1664891595.3,286047002.0,N
1664891615.1,286047001.4,N
1664891635.8,286047001.4,N
1664891655.7,286047002.2,N
1664891675.5,286047002.0,N
1664891695.4,286047001.9,N
1664891715.2,286047004.0,Y
1664891735.0,286047003.9,P
1664891735.9,286047003.9,N
1664891755.8,286047004.3,P
1664891775.6,286047002.6,N
1664891795.5,286047002.7,N
1664891815.3,286046998.3,N
1664891835.1,286047001.0,N
1664891855.9,286047002.8,N
1664891875.7,286047003.9,N
1664891895.5,286047003.9,N
1664891915.4,286047001.9,N
1664891935.2,286047002.6,N
1664891955.1,286047002.5,N
1664891956.0,286047002.5,N
1664891975.8,286047000.9,N
1664891995.6,286047002.8,N
